| time (UTC) | temp F | wind direction | speed knots | gust knots | rain 1hr in | rain 24hr in | rain mn in | humidity % | barometer mb |
| 20260507114607 | 0 | 0.0 | 0.0 | 0.00 | 0.00 | 0.00 | 1020.1 | ||
| 20260507113112 | 41 | 148 | 0.0 | 0.0 | 0.00 | 0.00 | 0.00 | 95 | 1020.1 |
| 20260507111555 | 42 | 148 | 0.0 | 0.0 | 0.00 | 0.00 | 0.00 | 95 | 1020.1 |
| 20260507110050 | 43 | 148 | 0.0 | 0.0 | 0.00 | 0.00 | 0.00 | 94 | 1020.1 |
| 20260507104549 | 44 | 148 | 0.0 | 0.0 | 0.00 | 0.00 | 0.00 | 94 | 1019.9 |
| 20260507103053 | 44 | 148 | 0.0 | 0.0 | 0.00 | 0.00 | 0.00 | 94 | 1019.8 |
| 20260507101549 | 45 | 148 | 0.0 | 0.0 | 0.00 | 0.00 | 0.00 | 95 | 1019.9 |
| 20260507100046 | 44 | 148 | 0.0 | 0.0 | 0.00 | 0.00 | 0.00 | 94 | 1019.8 |
| 20260507094545 | 44 | 148 | 0.0 | 0.0 | 0.00 | 0.00 | 0.00 | 94 | 1019.9 |
| 20260507093048 | 44 | 148 | 0.0 | 0.0 | 0.00 | 0.00 | 0.00 | 94 | 1019.9 |
| 20260507091544 | 44 | 148 | 0.0 | 0.0 | 0.00 | 0.00 | 0.00 | 94 | 1019.8 |
| 20260507090041 | 43 | 148 | 0.0 | 0.0 | 0.00 | 0.00 | 0.00 | 94 | 1019.7 |
| 20260507084545 | 43 | 148 | 0.0 | 0.0 | 0.00 | 0.00 | 0.00 | 95 | 1020.1 |
| 20260507083039 | 42 | 148 | 0.0 | 0.0 | 0.00 | 0.00 | 0.00 | 95 | 1020.0 |
| 20260507081544 | 41 | 148 | 0.0 | 0.0 | 0.00 | 0.00 | 0.00 | 95 | 1019.9 |
| 20260507080036 | 41 | 293 | 0.0 | 0.0 | 0.00 | 0.00 | 0.00 | 95 | 1020.2 |
| 20260507074537 | 40 | 293 | 0.0 | 0.0 | 0.00 | 0.00 | 0.00 | 95 | 1020.1 |
| 20260507073035 | 40 | 293 | 0.0 | 0.0 | 0.00 | 0.00 | 0.00 | 94 | 1020.0 |
| 20260507071532 | 40 | 293 | 0.0 | 0.0 | 0.00 | 0.00 | 0.00 | 94 | 1020.1 |
| 20260507070031 | 41 | 292 | 0.0 | 0.0 | 0.00 | 0.00 | 0.00 | 94 | 1020.3 |
| 20260507064529 | 41 | 293 | 0.0 | 0.0 | 0.00 | 0.00 | 0.00 | 94 | 1020.3 |
| 20260507063028 | 41 | 293 | 0.0 | 0.0 | 0.00 | 0.00 | 0.00 | 93 | 1020.6 |
| 20260507061526 | 42 | 293 | 0.0 | 0.0 | 0.00 | 0.00 | 0.00 | 93 | 1020.7 |
| 20260507060023 | 42 | 293 | 0.0 | 0.0 | 0.00 | 0.00 | 0.00 | 92 | 1020.5 |
| 20260507054521 | 42 | 292 | 0.0 | 0.0 | 0.00 | 0.00 | 0.00 | 92 | 1020.5 |
| 20260507053019 | 43 | 292 | 0.0 | 0.0 | 0.00 | 0.00 | 0.00 | 91 | 1020.5 |
| 20260507051518 | 43 | 293 | 0.0 | 0.0 | 0.00 | 0.00 | 0.00 | 91 | 1020.5 |
| 20260507050024 | 43 | 293 | 0.0 | 0.0 | 0.00 | 0.00 | 0.00 | 90 | 1020.5 |
| 20260507044514 | 44 | 293 | 0.0 | 0.0 | 0.00 | 0.00 | 0.00 | 90 | 1020.5 |
| 20260507043020 | 44 | 293 | 0.0 | 0.0 | 0.00 | 0.00 | 0.00 | 89 | 1020.4 |
| 20260507041510 | 44 | 293 | 0.0 | 0.0 | 0.00 | 0.00 | 0.00 | 88 | 1020.4 |
| 20260507040009 | 44 | 294 | 0.0 | 0.0 | 0.00 | 0.00 | 0.00 | 88 | 1020.3 |
| 20260507034517 | 45 | 326 | 0.0 | 0.0 | 0.00 | 0.00 | 0.00 | 87 | 1020.3 |
| 20260507033008 | 45 | 328 | 0.0 | 0.0 | 0.00 | 0.00 | 0.00 | 86 | 1020.2 |
| 20260507031507 | 46 | 329 | 0.0 | 0.0 | 0.00 | 0.00 | 0.00 | 84 | 1020.0 |
| 20260507030009 | 47 | 338 | 0.0 | 0.0 | 0.00 | 0.00 | 0.00 | 82 | 1019.9 |
| 20260507024513 | 48 | 11 | 0.0 | 0.0 | 0.00 | 0.00 | 0.00 | 79 | 1019.9 |
| 20260507023008 | 49 | 15 | 0.0 | 0.0 | 0.00 | 0.00 | 0.00 | 76 | 1019.8 |
| 20260507021509 | 51 | 15 | 0.0 | 0.0 | 0.00 | 0.00 | 0.00 | 72 | 1019.8 |
| 20260507020006 | 53 | 17 | 0.0 | 0.0 | 0.00 | 0.00 | 0.00 | 65 | 1019.7 |
| 20260507014505 | 55 | 17 | 0.0 | 0.0 | 0.00 | 0.00 | 0.00 | 64 | 1019.3 |
| 20260507013005 | 56 | 17 | 0.0 | 3.5 | 0.00 | 0.00 | 0.00 | 58 | 1019.1 |
| 20260507011506 | 57 | 9 | 2.6 | 6.1 | 0.00 | 0.00 | 0.00 | 56 | 1019.1 |
| 20260507010005 | 58 | 339 | 2.6 | 7.8 | 0.00 | 0.00 | 0.00 | 55 | 1019.0 |
| 20260507004503 | 59 | 29 | 4.3 | 8.7 | 0.00 | 0.00 | 0.00 | 53 | 1018.9 |
| 20260507003002 | 60 | 350 | 3.5 | 9.6 | 0.00 | 0.00 | 0.00 | 52 | 1018.6 |
| 20260507001505 | 60 | 55 | 7.0 | 10.4 | 0.00 | 0.00 | 0.00 | 52 | 1018.6 |
| 20260507000002 | 60 | 31 | 6.1 | 12.2 | 0.00 | 0.00 | 0.00 | 53 | 1018.4 |
| 20260506234501 | 60 | 17 | 6.1 | 11.3 | 0.00 | 0.00 | 0.00 | 54 | 1018.2 |
| 20260506233102 | 60 | 17 | 3.5 | 10.4 | 0.00 | 0.00 | 0.00 | 54 | 1018.1 |
| 20260506231607 | 61 | 55 | 4.3 | 9.6 | 0.00 | 0.00 | 0.00 | 53 | 1018.0 |
| 20260506230114 | 61 | 10 | 4.3 | 9.6 | 0.00 | 0.00 | 0.00 | 54 | 1018.2 |
| 20260506224559 | 60 | 18 | 5.2 | 13.0 | 0.00 | 0.00 | 0.00 | 54 | 1018.1 |
| 20260506223103 | 60 | 21 | 3.5 | 7.8 | 0.00 | 0.00 | 0.00 | 54 | 1018.4 |
| 20260506221610 | 60 | 14 | 4.3 | 11.3 | 0.00 | 0.00 | 0.00 | 53 | 1018.2 |
| 20260506220058 | 60 | 31 | 4.3 | 11.3 | 0.00 | 0.00 | 0.00 | 53 | 1018.3 |
| 20260506214556 | 61 | 328 | 5.2 | 10.4 | 0.00 | 0.00 | 0.00 | 53 | 1018.3 |
| 20260506213057 | 61 | 63 | 5.2 | 11.3 | 0.00 | 0.00 | 0.00 | 54 | 1018.4 |
| 20260506211554 | 62 | 30 | 6.1 | 12.2 | 0.00 | 0.00 | 0.00 | 52 | 1018.5 |
| 20260506210057 | 61 | 338 | 7.0 | 13.0 | 0.00 | 0.00 | 0.00 | 53 | 1018.6 |
| 20260506204555 | 62 | 36 | 7.0 | 10.4 | 0.00 | 0.00 | 0.00 | 53 | 1018.7 |
| 20260506203058 | 62 | 18 | 7.0 | 12.2 | 0.00 | 0.00 | 0.00 | 53 | 1018.7 |
| 20260506201548 | 62 | 25 | 7.8 | 13.0 | 0.00 | 0.00 | 0.00 | 54 | 1018.9 |
| 20260506200053 | 60 | 94 | 2.6 | 8.7 | 0.00 | 0.00 | 0.00 | 54 | 1019.3 |
| 20260506194546 | 59 | 84 | 4.3 | 7.0 | 0.00 | 0.00 | 0.00 | 56 | 1019.2 |
| 20260506193049 | 60 | 14 | 7.0 | 13.9 | 0.00 | 0.00 | 0.00 | 54 | 1019.6 |
| 20260506191544 | 61 | 330 | 6.1 | 13.0 | 0.00 | 0.00 | 0.00 | 54 | 1019.6 |
| 20260506190048 | 60 | 346 | 8.7 | 13.0 | 0.00 | 0.00 | 0.00 | 54 | 1019.9 |
| 20260506184546 | 61 | 30 | 4.3 | 10.4 | 0.00 | 0.00 | 0.00 | 56 | 1020.0 |
| 20260506183038 | 59 | 34 | 6.1 | 11.3 | 0.00 | 0.00 | 0.00 | 55 | 1020.4 |
| 20260506181541 | 59 | 348 | 5.2 | 11.3 | 0.00 | 0.00 | 0.00 | 56 | 1020.2 |
| 20260506180036 | 59 | 335 | 5.2 | 11.3 | 0.00 | 0.00 | 0.00 | 57 | 1020.5 |
| 20260506174537 | 59 | 15 | 4.3 | 12.2 | 0.00 | 0.00 | 0.00 | 58 | 1020.8 |
| 20260506173031 | 58 | 31 | 6.1 | 13.0 | 0.00 | 0.00 | 0.00 | 57 | 1020.8 |
| 20260506171534 | 58 | 335 | 7.0 | 12.2 | 0.00 | 0.00 | 0.00 | 60 | 1020.9 |
| 20260506170031 | 58 | 333 | 5.2 | 10.4 | 0.00 | 0.00 | 0.00 | 60 | 1021.1 |
| 20260506164543 | 57 | 321 | 6.1 | 13.0 | 0.00 | 0.00 | 0.00 | 56 | 1021.0 |
| 20260506163024 | 57 | 24 | 6.1 | 11.3 | 0.00 | 0.00 | 0.00 | 61 | 1020.8 |
| 20260506161522 | 56 | 311 | 4.3 | 9.6 | 0.00 | 0.00 | 0.00 | 61 | 1020.3 |
| 20260506160017 | 55 | 45 | 6.1 | 12.2 | 0.00 | 0.00 | 0.00 | 63 | 1019.9 |
| 20260506154515 | 55 | 286 | 7.0 | 13.0 | 0.00 | 0.00 | 0.00 | 63 | 1019.5 |
| 20260506153012 | 55 | 326 | 6.1 | 10.4 | 0.00 | 0.00 | 0.00 | 65 | 1019.6 |
| 20260506151514 | 54 | 33 | 2.6 | 10.4 | 0.00 | 0.00 | 0.00 | 64 | 1019.8 |
| 20260506150009 | 53 | 32 | 3.5 | 10.4 | 0.00 | 0.00 | 0.00 | 68 | 1019.7 |
| 20260506144509 | 53 | 49 | 4.3 | 11.3 | 0.00 | 0.02 | 0.00 | 70 | 1019.6 |
| 20260506143004 | 52 | 327 | 2.6 | 7.0 | 0.00 | 0.02 | 0.00 | 71 | 1019.6 |
| 20260506141559 | 52 | 340 | 0.0 | 7.0 | 0.00 | 0.02 | 0.00 | 75 | 1019.8 |
| 20260506140057 | 51 | 121 | 1.7 | 5.2 | 0.00 | 0.02 | 0.00 | 77 | 1019.9 |
| 20260506134553 | 49 | 9 | 4.3 | 7.8 | 0.00 | 0.02 | 0.00 | 80 | 1019.9 |
| 20260506133104 | 48 | 44 | 2.6 | 6.1 | 0.00 | 0.02 | 0.00 | 82 | 1019.8 |
| 20260506131547 | 47 | 27 | 1.7 | 6.1 | 0.00 | 0.02 | 0.00 | 86 | 1019.5 |
| 20260506130042 | 47 | 38 | 0.9 | 4.3 | 0.00 | 0.02 | 0.00 | 86 | 1019.4 |
| 20260506124539 | 46 | 35 | 0.0 | 1.7 | 0.00 | 0.02 | 0.00 | 87 | 1019.5 |
| 20260506123036 | 46 | 30 | 0.9 | 5.2 | 0.00 | 0.02 | 0.00 | 87 | 1019.2 |
| 20260506121532 | 0 | 0.0 | 0.0 | 0.00 | 0.02 | 0.00 | 1018.8 | ||
| 20260506120048 | 0 | 0.0 | 0.0 | 0.00 | 0.02 | 0.00 | 1018.9 |